Hourly Weather Klei

Today, 30 July, Friday

Time Temperature Precipitation Wind Pressure Humidity
00:00 +17°C° 0 mm 2 mps 738 mmHg 89%
01:00 +17°C° 0 mm 2 mps 738 mmHg 89%
02:00 +17°C° 0 mm 2 mps 738 mmHg 90%
03:00 +16°C° 0 mm 2 mps 737 mmHg 91%
04:00 +16°C° 0 mm 3 mps 737 mmHg 92%
05:00 +16°C° 0 mm 3 mps 737 mmHg 92%
06:00 +17°C° 0 mm 3 mps 737 mmHg 87%
07:00 +18°C° 0 mm 4 mps 738 mmHg 82%
08:00 +19°C° 0 mm 4 mps 738 mmHg 77%
09:00 +20°C° 0 mm 5 mps 738 mmHg 68%
10:00 +21°C° 0 mm 5 mps 738 mmHg 58%
11:00 +22°C° 0 mm 6 mps 738 mmHg 48%
12:00 +23°C° 0 mm 6 mps 738 mmHg 47%
13:00 +23°C° 0 mm 6 mps 737 mmHg 46%
14:00 +24°C° 0 mm 6 mps 737 mmHg 45%
15:00 +23°C° 0 mm 6 mps 737 mmHg 51%
16:00 +22°C° 0 mm 5 mps 736 mmHg 56%
17:00 +21°C° 0 mm 5 mps 736 mmHg 61%
18:00 +20°C° 0 mm 4 mps 736 mmHg 63%
19:00 +19°C° 0 mm 4 mps 736 mmHg 64%
20:00 +19°C° 0 mm 3 mps 736 mmHg 66%
21:00 +18°C° 0 mm 3 mps 736 mmHg 68%
22:00 +17°C° 0 mm 3 mps 736 mmHg 71%
23:00 +16°C° 0 mm 3 mps 736 mmHg 74%

Tomorrow, 31 July, Saturday

Time Temperature Precipitation Wind Pressure Humidity
00:00 +14°C° 0 mm 3 mps 736 mmHg 76%
01:00 +14°C° 0 mm 3 mps 736 mmHg 78%
02:00 +14°C° 0 mm 4 mps 736 mmHg 80%
03:00 +13°C° 0 mm 4 mps 736 mmHg 81%
04:00 +13°C° 0 mm 3 mps 736 mmHg 82%
05:00 +13°C° 0 mm 3 mps 736 mmHg 84%
06:00 +14°C° 0 mm 4 mps 736 mmHg 78%
07:00 +17°C° 0 mm 4 mps 737 mmHg 72%
08:00 +19°C° 0 mm 5 mps 737 mmHg 67%
09:00 +20°C° 0 mm 5 mps 737 mmHg 62%
10:00 +21°C° 0 mm 5 mps 737 mmHg 57%
11:00 +23°C° 0 mm 5 mps 738 mmHg 53%
12:00 +23°C° 0 mm 5 mps 738 mmHg 51%
13:00 +25°C° 0 mm 5 mps 737 mmHg 49%
14:00 +26°C° 0 mm 4 mps 737 mmHg 47%
15:00 +26°C° 0 mm 4 mps 737 mmHg 50%
16:00 +26°C° 0 mm 3 mps 737 mmHg 53%
17:00 +26°C° 0 mm 3 mps 737 mmHg 56%
18:00 +24°C° 0 mm 3 mps 737 mmHg 63%
19:00 +23°C° 0 mm 2 mps 737 mmHg 69%
20:00 +20°C° 0 mm 2 mps 737 mmHg 75%
21:00 +20°C° 0.1 mm 3 mps 737 mmHg 77%
22:00 +19°C° 0.1 mm 4 mps 737 mmHg 79%
23:00 +19°C° 0.1 mm 5 mps 737 mmHg 80%

Day after tomorrow, 1 August, Sunday

Time Temperature Precipitation Wind Pressure Humidity
00:00 +18°C° 0.2 mm 4 mps 737 mmHg 85%
01:00 +18°C° 0.2 mm 4 mps 736 mmHg 90%
02:00 +17°C° 0.2 mm 3 mps 736 mmHg 94%
03:00 +17°C° 0 mm 3 mps 736 mmHg 95%
04:00 +16°C° 0 mm 3 mps 736 mmHg 95%
05:00 +16°C° 0 mm 3 mps 736 mmHg 96%
06:00 +17°C° 0 mm 3 mps 736 mmHg 90%
07:00 +19°C° 0 mm 4 mps 737 mmHg 84%
08:00 +20°C° 0 mm 4 mps 737 mmHg 78%
09:00 +21°C° 0 mm 4 mps 737 mmHg 70%
10:00 +22°C° 0 mm 5 mps 737 mmHg 62%
11:00 +23°C° 0 mm 5 mps 738 mmHg 53%
12:00 +23°C° 0 mm 5 mps 738 mmHg 51%
13:00 +25°C° 0 mm 5 mps 738 mmHg 50%
14:00 +26°C° 0 mm 5 mps 738 mmHg 48%
15:00 +25°C° 0 mm 4 mps 738 mmHg 52%
16:00 +25°C° 0 mm 4 mps 738 mmHg 56%
17:00 +23°C° 0 mm 4 mps 738 mmHg 60%
18:00 +22°C° 0 mm 3 mps 738 mmHg 64%
19:00 +21°C° 0 mm 2 mps 738 mmHg 68%
20:00 +20°C° 0 mm 1 mps 737 mmHg 72%
21:00 +20°C° 0 mm 1 mps 737 mmHg 74%
22:00 +19°C° 0 mm 1 mps 737 mmHg 76%
23:00 +19°C° 0 mm 1 mps 737 mmHg 78%

2 August, Monday

Time Temperature Precipitation Wind Pressure Humidity
00:00 +18°C° 0.2 mm 1 mps 737 mmHg 82%
01:00 +17°C° 0.2 mm 2 mps 737 mmHg 86%
02:00 +16°C° 0.2 mm 2 mps 736 mmHg 90%
03:00 +16°C° 0.5 mm 2 mps 736 mmHg 92%
04:00 +16°C° 0.5 mm 2 mps 736 mmHg 94%
05:00 +14°C° 0.5 mm 3 mps 735 mmHg 96%
06:00 +16°C° 0.6 mm 3 mps 735 mmHg 96%
07:00 +16°C° 0.6 mm 3 mps 735 mmHg 96%
08:00 +16°C° 0.6 mm 3 mps 734 mmHg 96%
09:00 +16°C° 1 mm 3 mps 735 mmHg 96%
10:00 +16°C° 1 mm 3 mps 735 mmHg 97%
11:00 +16°C° 1 mm 3 mps 735 mmHg 97%
12:00 +14°C° 1.2 mm 4 mps 735 mmHg 96%
13:00 +14°C° 1.2 mm 5 mps 736 mmHg 96%
14:00 +14°C° 1.2 mm 5 mps 736 mmHg 95%
15:00 +14°C° 0.5 mm 5 mps 736 mmHg 94%
16:00 +14°C° 0.5 mm 4 mps 737 mmHg 93%
17:00 +14°C° 0.5 mm 3 mps 737 mmHg 92%
18:00 +13°C° 0 mm 3 mps 737 mmHg 93%
19:00 +14°C° 0 mm 2 mps 737 mmHg 94%
20:00 +14°C° 0 mm 2 mps 737 mmHg 94%
21:00 +14°C° 0.1 mm 2 mps 737 mmHg 94%
22:00 +13°C° 0.1 mm 3 mps 737 mmHg 95%
23:00 +13°C° 0.1 mm 3 mps 738 mmHg 95%

3 August, Tuesday

Time Temperature Precipitation Wind Pressure Humidity
00:00 +13°C° 0.1 mm 3 mps 738 mmHg 95%
01:00 +12°C° 0.1 mm 3 mps 738 mmHg 96%
02:00 +12°C° 0.1 mm 3 mps 738 mmHg 96%
03:00 +12°C° 0 mm 3 mps 738 mmHg 96%
04:00 +12°C° 0 mm 3 mps 738 mmHg 96%
05:00 +12°C° 0 mm 3 mps 738 mmHg 96%
06:00 +13°C° 0 mm 4 mps 738 mmHg 91%
07:00 +14°C° 0 mm 4 mps 739 mmHg 86%
08:00 +15°C° 0 mm 5 mps 739 mmHg 80%
09:00 +16°C° 0 mm 6 mps 739 mmHg 75%
10:00 +19°C° 0 mm 6 mps 739 mmHg 70%
11:00 +20°C° 0 mm 7 mps 739 mmHg 65%
12:00 +20°C° 0.3 mm 6 mps 739 mmHg 67%
13:00 +20°C° 0.3 mm 6 mps 740 mmHg 69%
14:00 +20°C° 0.3 mm 6 mps 740 mmHg 71%
15:00 +20°C° 0.3 mm 5 mps 740 mmHg 72%
16:00 +20°C° 0.3 mm 5 mps 740 mmHg 73%
17:00 +20°C° 0.3 mm 5 mps 740 mmHg 74%
18:00 +18°C° 0.4 mm 4 mps 741 mmHg 80%
19:00 +17°C° 0.4 mm 3 mps 741 mmHg 86%
20:00 +16°C° 0.4 mm 3 mps 741 mmHg 92%
21:00 +15°C° 0 mm 2 mps 741 mmHg 92%
22:00 +14°C° 0 mm 2 mps 742 mmHg 93%
23:00 +14°C° 0 mm 2 mps 742 mmHg 93%

4 August, Wednesday

Time Temperature Precipitation Wind Pressure Humidity
00:00 +13°C° 0 mm 2 mps 742 mmHg 93%
01:00 +13°C° 0 mm 1 mps 743 mmHg 93%
02:00 +12°C° 0 mm 1 mps 743 mmHg 93%
03:00 +12°C° 0 mm 1 mps 743 mmHg 93%
04:00 +12°C° 0 mm 1 mps 743 mmHg 93%
05:00 +12°C° 0 mm 1 mps 744 mmHg 93%
06:00 +13°C° 0 mm 1 mps 744 mmHg 89%
07:00 +15°C° 0 mm 1 mps 744 mmHg 85%
08:00 +16°C° 0 mm 1 mps 745 mmHg 81%
09:00 +19°C° 0 mm 1 mps 745 mmHg 74%
10:00 +20°C° 0 mm 1 mps 745 mmHg 67%
11:00 +21°C° 0 mm 1 mps 745 mmHg 60%
12:00 +22°C° 0 mm 1 mps 745 mmHg 57%
13:00 +23°C° 0 mm 1 mps 745 mmHg 53%
14:00 +24°C° 0 mm 1 mps 745 mmHg 50%
15:00 +24°C° 0 mm 1 mps 744 mmHg 50%
16:00 +22°C° 0 mm 0 mps 744 mmHg 50%
17:00 +22°C° 0 mm 0 mps 744 mmHg 51%
18:00 +22°C° 0 mm 1 mps 744 mmHg 56%
19:00 +20°C° 0 mm 1 mps 744 mmHg 61%
20:00 +19°C° 0 mm 1 mps 744 mmHg 66%
21:00 +17°C° 0 mm 2 mps 744 mmHg 67%
22:00 +17°C° 0 mm 2 mps 744 mmHg 67%
23:00 +16°C° 0 mm 2 mps 745 mmHg 68%
Show more